This is the latest recevied weather packets stored in our database for station/object HG8GL-6. If no packets are shown the sender has not sent any weather packets the latest 10 day(s).
| Time | Temp. | Humidity | Pressure | Rain* | Wind** | Luminosity | Snow |
|---|---|---|---|---|---|---|---|
| 1778100409 | 19.44° C | 56% | 1010 hPa | 0 mm | - | - | - |
| 1778099809 | 19.44° C | 55% | 1011 hPa | 0 mm | - | - | - |
| 1778099179 | 19.44° C | 54% | 1011 hPa | 0 mm | - | - | - |
| 1778098549 | 18.89° C | 56% | 1011 hPa | 0 mm | - | - | - |
| 1778097949 | 17.78° C | 56% | 1010 hPa | 0 mm | - | - | - |
| 1778097349 | 17.78° C | 52% | 1010.2 hPa | 0 mm | - | - | - |
| 1778096749 | 17.78° C | 51% | 1011 hPa | 0 mm | - | - | - |
| 1778096149 | 17.78° C | 50% | 1010 hPa | 0 mm | - | - | - |
| 1778095549 | 18.33° C | 49% | 1010 hPa | 0 mm | - | - | - |
| 1778094949 | 18.33° C | 49% | 1010 hPa | 0 mm | - | - | - |
| 1778094319 | 18.89° C | 48% | 1011 hPa | 0 mm | - | - | - |
| 1778093719 | 18.89° C | 48% | 1010.8 hPa | 0 mm | - | - | - |
| 1778093089 | 19.44° C | 46% | 1010 hPa | 0 mm | - | - | - |
| 1778092489 | 19.44° C | 45% | 1010 hPa | 0 mm | - | - | - |
| 1778091889 | 20° C | 43% | 1010 hPa | 0 mm | - | - | - |
| 1778091259 | 20.56° C | 42% | 1010 hPa | 0 mm | - | - | - |
| 1778090629 | 21.11° C | 41% | 1010 hPa | 0 mm | - | - | - |
| 1778090029 | 21.67° C | 39% | 1010 hPa | 0 mm | - | - | - |
| 1778089398 | 22.22° C | 38% | 1010 hPa | 0 mm | - | - | - |
| 1778088768 | 23.33° C | 37% | 1010 hPa | 0 mm | - | - | - |
| 1778088168 | 23.89° C | 36% | 1010 hPa | 0 mm | - | - | - |
| 1778087538 | 23.89° C | 35% | 1010 hPa | 0 mm | - | - | - |
| 1778086908 | 24.44° C | 34% | 1010 hPa | 0 mm | - | - | - |
| 1778086279 | 24.44° C | 34% | 1010 hPa | 0 mm | - | - | - |
| 1778085678 | 25° C | 34% | 1010 hPa | 0 mm | - | - | - |
* Rain latest hour (hover to see other rain measurements)
** Current wind speed in m/s (hover to see current wind gust speed)